When you browse on this site, cookies collect data to enhance your experience and personalize the content and advertising you see.
Visit our Privacy Policy to learn more. By continuing to use the site, you agree to this use of cookies and data.
  • In Czech Republic
  • List of Countries
  • For 7 days
  • Water Temperature
  • Weather Map
  • Weather Widgets
  • user-avatar
    Login

    Hourly Weather Mogotes

    Today, 14 November, Thursday

    Time Temperature Precipitation Wind Pressure Humidity
    00:00 +16°C° 0.3 mm 0 mps 618 mmHg 96%
    01:00 +16°C° 0 mm 0 mps 618 mmHg 96%
    02:00 +16°C° 0.8 mm 0 mps 618 mmHg 97%
    03:00 +16°C° 0.8 mm 0 mps 618 mmHg 97%
    04:00 +16°C° 0.8 mm 0 mps 618 mmHg 97%
    05:00 +16°C° 1.7 mm 0 mps 619 mmHg 97%
    06:00 +16°C° 1.7 mm 0 mps 619 mmHg 96%
    07:00 +16°C° 1.7 mm 0 mps 619 mmHg 96%
    08:00 +20°C° 0.4 mm 1 mps 620 mmHg 90%
    09:00 +21°C° 0.4 mm 1 mps 621 mmHg 84%
    10:00 +23°C° 0.4 mm 1 mps 622 mmHg 77%
    11:00 +24°C° 0.5 mm 1 mps 621 mmHg 73%
    12:00 +24°C° 0.5 mm 1 mps 621 mmHg 69%
    13:00 +25°C° 0.5 mm 2 mps 620 mmHg 65%
    14:00 +24°C° 0.8 mm 2 mps 619 mmHg 71%
    15:00 +23°C° 0.8 mm 2 mps 619 mmHg 78%
    16:00 +22°C° 0.8 mm 1 mps 618 mmHg 84%
    17:00 +21°C° 1.2 mm 1 mps 618 mmHg 88%
    18:00 +20°C° 1.2 mm 1 mps 618 mmHg 92%
    19:00 +16°C° 1.2 mm 0 mps 618 mmHg 96%
    20:00 +16°C° 0.5 mm 0 mps 618 mmHg 96%
    21:00 +16°C° 0.5 mm 0 mps 619 mmHg 96%
    22:00 +16°C° 0.5 mm 0 mps 619 mmHg 96%
    23:00 +15°C° 0.5 mm 0 mps 619 mmHg 96%

    Tomorrow, 15 November, Friday

    Time Temperature Precipitation Wind Pressure Humidity
    00:00 +15°C° 0.5 mm 0 mps 618 mmHg 96%
    01:00 +15°C° 0.5 mm 0 mps 618 mmHg 97%
    02:00 +15°C° 0.1 mm 0 mps 618 mmHg 96%
    03:00 +15°C° 0.1 mm 0 mps 618 mmHg 96%
    04:00 +15°C° 0.1 mm 0 mps 618 mmHg 96%
    05:00 +16°C° 0 mm 0 mps 618 mmHg 95%
    06:00 +16°C° 0 mm 0 mps 619 mmHg 95%
    07:00 +16°C° 0 mm 0 mps 619 mmHg 95%
    08:00 +17°C° 0.5 mm 0 mps 620 mmHg 92%
    09:00 +20°C° 0.5 mm 1 mps 620 mmHg 90%
    10:00 +21°C° 0.5 mm 1 mps 621 mmHg 88%
    11:00 +22°C° 1 mm 1 mps 620 mmHg 86%
    12:00 +22°C° 1 mm 1 mps 619 mmHg 84%
    13:00 +23°C° 1 mm 1 mps 619 mmHg 82%
    14:00 +23°C° 1.4 mm 1 mps 618 mmHg 84%
    15:00 +22°C° 1.4 mm 1 mps 618 mmHg 87%
    16:00 +22°C° 1.4 mm 1 mps 617 mmHg 89%
    17:00 +21°C° 1.3 mm 1 mps 617 mmHg 91%
    18:00 +19°C° 1.3 mm 1 mps 618 mmHg 94%
    19:00 +16°C° 1.3 mm 0 mps 618 mmHg 96%
    20:00 +16°C° 0.5 mm 0 mps 618 mmHg 96%
    21:00 +16°C° 0.5 mm 0 mps 618 mmHg 96%
    22:00 +16°C° 0.5 mm 0 mps 619 mmHg 96%
    23:00 +16°C° 0.1 mm 0 mps 618 mmHg 97%

    Day after tomorrow, 16 November, Saturday

    Time Temperature Precipitation Wind Pressure Humidity
    00:00 +16°C° 0.1 mm 0 mps 618 mmHg 97%
    01:00 +16°C° 0.1 mm 0 mps 617 mmHg 97%
    02:00 +16°C° 0.2 mm 0 mps 617 mmHg 97%
    03:00 +15°C° 0.2 mm 0 mps 617 mmHg 98%
    04:00 +15°C° 0.2 mm 0 mps 617 mmHg 98%
    05:00 +16°C° 0.2 mm 0 mps 617 mmHg 97%
    06:00 +16°C° 0.2 mm 0 mps 618 mmHg 96%
    07:00 +16°C° 0.2 mm 0 mps 618 mmHg 96%
    08:00 +18°C° 0.4 mm 0 mps 619 mmHg 91%
    09:00 +21°C° 0.4 mm 1 mps 619 mmHg 86%
    10:00 +22°C° 0.4 mm 1 mps 620 mmHg 82%
    11:00 +23°C° 0.6 mm 1 mps 619 mmHg 80%
    12:00 +23°C° 0.6 mm 1 mps 619 mmHg 78%
    13:00 +24°C° 0.6 mm 2 mps 618 mmHg 77%
    14:00 +23°C° 0.8 mm 2 mps 617 mmHg 80%
    15:00 +22°C° 0.8 mm 1 mps 617 mmHg 84%
    16:00 +22°C° 0.8 mm 1 mps 616 mmHg 87%
    17:00 +20°C° 0.5 mm 1 mps 616 mmHg 90%
    18:00 +19°C° 0.5 mm 1 mps 616 mmHg 93%
    19:00 +16°C° 0.5 mm 0 mps 616 mmHg 96%
    20:00 +15°C° 0.1 mm 0 mps 617 mmHg 95%
    21:00 +15°C° 0.1 mm 0 mps 617 mmHg 95%
    22:00 +15°C° 0.1 mm 0 mps 617 mmHg 94%
    23:00 +15°C° 0 mm 0 mps 617 mmHg 95%

    17 November, Sunday

    Time Temperature Precipitation Wind Pressure Humidity
    00:00 +15°C° 0 mm 0 mps 617 mmHg 95%
    01:00 +14°C° 0 mm 0 mps 616 mmHg 95%
    02:00 +14°C° 0 mm 0 mps 616 mmHg 95%
    03:00 +14°C° 0 mm 0 mps 616 mmHg 96%
    04:00 +14°C° 0 mm 0 mps 616 mmHg 96%
    05:00 +14°C° 0 mm 0 mps 617 mmHg 94%
    06:00 +15°C° 0 mm 0 mps 617 mmHg 93%
    07:00 +16°C° 0 mm 0 mps 618 mmHg 91%
    08:00 +18°C° 0 mm 0 mps 618 mmHg 82%
    09:00 +22°C° 0 mm 1 mps 619 mmHg 74%
    10:00 +24°C° 0 mm 1 mps 620 mmHg 65%
    11:00 +24°C° 0.2 mm 1 mps 619 mmHg 65%
    12:00 +24°C° 0.2 mm 2 mps 618 mmHg 64%
    13:00 +25°C° 0.2 mm 2 mps 618 mmHg 64%
    14:00 +24°C° 0.6 mm 2 mps 617 mmHg 72%
    15:00 +23°C° 0.6 mm 2 mps 617 mmHg 79%
    16:00 +22°C° 0.6 mm 1 mps 616 mmHg 87%
    17:00 +20°C° 0.6 mm 1 mps 616 mmHg 90%
    18:00 +19°C° 0.6 mm 1 mps 616 mmHg 93%
    19:00 +16°C° 0.6 mm 0 mps 616 mmHg 97%
    20:00 +15°C° 0.2 mm 0 mps 616 mmHg 97%
    21:00 +15°C° 0.2 mm 0 mps 617 mmHg 96%
    22:00 +15°C° 0.2 mm 0 mps 617 mmHg 96%
    23:00 +15°C° 0.1 mm 0 mps 617 mmHg 96%

    18 November, Monday

    Time Temperature Precipitation Wind Pressure Humidity
    00:00 +14°C° 0.1 mm 0 mps 617 mmHg 95%
    01:00 +14°C° 0.1 mm 0 mps 616 mmHg 95%
    02:00 +14°C° 0 mm 0 mps 616 mmHg 95%
    03:00 +14°C° 0 mm 0 mps 616 mmHg 95%
    04:00 +14°C° 0 mm 0 mps 616 mmHg 95%
    05:00 +14°C° 0 mm 0 mps 617 mmHg 94%
    06:00 +15°C° 0 mm 0 mps 618 mmHg 93%
    07:00 +15°C° 0 mm 0 mps 618 mmHg 92%
    08:00 +18°C° 0 mm 0 mps 619 mmHg 83%
    09:00 +22°C° 0 mm 1 mps 620 mmHg 75%
    10:00 +24°C° 0 mm 1 mps 620 mmHg 66%
    11:00 +24°C° 0.2 mm 1 mps 620 mmHg 66%
    12:00 +24°C° 0.2 mm 2 mps 619 mmHg 67%
    13:00 +24°C° 0.2 mm 2 mps 619 mmHg 67%
    14:00 +23°C° 0.5 mm 2 mps 618 mmHg 73%
    15:00 +23°C° 0.5 mm 1 mps 617 mmHg 78%
    16:00 +22°C° 0.5 mm 1 mps 617 mmHg 84%
    17:00 +21°C° 0.4 mm 1 mps 617 mmHg 88%
    18:00 +17°C° 0.4 mm 0 mps 617 mmHg 92%
    19:00 +16°C° 0.4 mm 0 mps 617 mmHg 97%
    20:00 +16°C° 0.3 mm 0 mps 617 mmHg 97%
    21:00 +15°C° 0.3 mm 0 mps 618 mmHg 97%
    22:00 +15°C° 0.3 mm 0 mps 618 mmHg 96%
    23:00 +15°C° 0.1 mm 0 mps 618 mmHg 96%

    19 November, Tuesday

    Time Temperature Precipitation Wind Pressure Humidity
    00:00 +15°C° 0.1 mm 0 mps 617 mmHg 96%
    01:00 +15°C° 0.1 mm 0 mps 617 mmHg 96%
    02:00 +15°C° 0 mm 0 mps 617 mmHg 96%
    03:00 +15°C° 0 mm 0 mps 617 mmHg 96%
    04:00 +15°C° 0 mm 0 mps 617 mmHg 96%
    05:00 +15°C° 0 mm 0 mps 618 mmHg 95%
    06:00 +16°C° 0 mm 0 mps 618 mmHg 94%
    07:00 +16°C° 0 mm 0 mps 619 mmHg 93%
    08:00 +18°C° 0 mm 0 mps 619 mmHg 85%
    09:00 +22°C° 0 mm 1 mps 620 mmHg 78%
    10:00 +23°C° 0 mm 1 mps 620 mmHg 70%
    11:00 +24°C° 0.2 mm 1 mps 620 mmHg 69%
    12:00 +24°C° 0.2 mm 2 mps 620 mmHg 68%
    13:00 +25°C° 0.2 mm 2 mps 619 mmHg 66%
    14:00 +24°C° 0.6 mm 2 mps 619 mmHg 72%
    15:00 +23°C° 0.6 mm 1 mps 618 mmHg 78%
    16:00 +22°C° 0.6 mm 1 mps 617 mmHg 84%
    17:00 +21°C° 0.7 mm 1 mps 618 mmHg 89%
    18:00 +19°C° 0.7 mm 1 mps 618 mmHg 93%
    19:00 +16°C° 0.7 mm 0 mps 618 mmHg 97%
    20:00 +16°C° 0.2 mm 0 mps 618 mmHg 96%
    21:00 +15°C° 0.2 mm 0 mps 618 mmHg 96%
    22:00 +15°C° 0.2 mm 0 mps 618 mmHg 95%
    23:00 +15°C° 0 mm 0 mps 618 mmHg 95%
    Show more